Location: Quaker Farms
(41.4276°N, 73.1557°W)
Time: 20:07:11
(UTC+00:00)

S-56A Canister/Altair - Pass Details

Date: 23 June 2021
Orbit: 631 x 2501 km, 38.9° (Epoch: 30 July)

Event Time Altitude Azimuth Distance (km) Brightness Sun altitude
Rises 06:41:23 0° 209° (SSW) 3,473 - -20.6°
Reaches altitude 10° 06:45:05 10° 188° (S) 2,286 - -20.3°
Maximum altitude 06:48:06 16° 151° (SSE) 1,772 - -20.0°
Exits shadow 06:48:42 15° 142° (SE) 1,768 9.1 -20.0°
Drops below altitude 10° 06:50:52 10° 113° (ESE) 2,041 9.8 -19.8°
Sets 06:53:52 0° 90° (E) 2,913 10.9 -19.5°
